DW2428 Weather Reports


time (UTC)temp
C
wind
direction
speed
KPH
gust
KPH
rain 1hr
cm
rain 24hr
cm
rain mn
cm
humidity
%
barometer
mb
20260504195010 19 133 4.8 22.5 0.00 0.00 0.00 48 1009.4
20260504194741 20 134 4.8 38.6 0.00 0.00 0.00 46 1009.3
20260504194607 19 77 8.0 38.6 0.00 0.00 0.00 46 1009.3
20260504194238 20 141 9.7 38.6 0.00 0.00 0.00 46 1009.5
20260504194041 20 140 11.3 38.6 0.00 0.00 0.00 44 1009.4
20260504193725 20 263 4.8 17.7 0.00 0.00 0.00 46 1009.5
20260504193545 20 130 3.2 17.7 0.00 0.00 0.00 46 1009.4
20260504193225 20 115 6.4 17.7 0.00 0.00 0.00 46 1009.4
20260504193049 20 271 8.0 17.7 0.00 0.00 0.00 45 1009.4
20260504192733 20 122 3.2 11.3 0.00 0.00 0.00 44 1009.5
20260504192532 20 281 3.2 16.1 0.00 0.00 0.00 46 1009.5
20260504192229 20 257 4.8 16.1 0.00 0.00 0.00 42 1009.5
20260504192007 20 115 4.8 16.1 0.00 0.00 0.00 43 1009.6
20260504191744 20 177 3.2 16.1 0.00 0.00 0.00 44 1009.4
20260504191545 20 142 6.4 16.1 0.00 0.00 0.00 44 1009.3
20260504191230 20 281 4.8 24.1 0.00 0.00 0.00 43 1009.5
20260504191031 20 294 3.2 24.1 0.00 0.00 0.00 44 1009.6
20260504190737 20 158 8.0 24.1 0.00 0.00 0.00 45 1009.4
20260504190632 20 157 9.7 24.1 0.00 0.00 0.00 42 1009.6
20260504190240 20 233 4.8 27.4 0.00 0.00 0.00 43 1009.5
20260504190107 20 97 6.4 27.4 0.00 0.00 0.00 42 1009.6
20260504185748 20 154 3.2 27.4 0.00 0.00 0.00 43 1009.6
20260504185529 20 168 9.7 27.4 0.00 0.00 0.00 42 1009.7
20260504185239 21 184 8.0 19.3 0.00 0.00 0.00 40 1009.6
20260504185026 21 155 8.0 19.3 0.00 0.00 0.00 42 1009.7
20260504184730 21 115 4.8 19.3 0.00 0.00 0.00 40 1009.9
20260504184518 21 289 6.4 19.3 0.00 0.00 0.00 40 1009.7
20260504184230 21 181 4.8 11.3 0.00 0.00 0.00 39 1009.6
20260504184053 21 252 4.8 14.5 0.00 0.00 0.00 40 1009.8
20260504183744 21 190 1.6 14.5 0.00 0.00 0.00 42 1009.8
20260504183531 20 233 3.2 27.4 0.00 0.00 0.00 39 1009.9
20260504183233 20 97 6.4 27.4 0.00 0.00 0.00 40 1009.9
20260504183003 20 206 4.8 27.4 0.00 0.00 0.00 40 1009.9
20260504182728 21 128 8.0 24.1 0.00 0.00 0.00 39 1009.9
20260504182554 20 134 6.4 17.7 0.00 0.00 0.00 38 1010.1
20260504182240 21 318 4.8 24.1 0.00 0.00 0.00 38 1010.0
20260504182042 20 242 4.8 24.1 0.00 0.00 0.00 38 1010.1
20260504181726 21 313 4.8 24.1 0.00 0.00 0.00 40 1010.2
20260504181542 21 167 8.0 22.5 0.00 0.00 0.00 39 1009.9
20260504181225 21 175 4.8 14.5 0.00 0.00 0.00 41 1010.2
20260504181047 21 204 6.4 14.5 0.00 0.00 0.00 40 1010.1
20260504180743 21 194 3.2 27.4 0.00 0.00 0.00 39 1010.2
20260504180527 20 265 4.8 27.4 0.00 0.00 0.00 38 1010.3
20260504180233 20 163 6.4 27.4 0.00 0.00 0.00 42 1010.5
20260504175730 20 147 11.3 27.4 0.00 0.00 0.00 38 1010.4
20260504175548 20 153 9.7 19.3 0.00 0.00 0.00 40 1010.5
20260504175232 20 279 4.8 16.1 0.00 0.00 0.00 36 1010.4
20260504175052 20 294 4.8 16.1 0.00 0.00 0.00 36 1010.6
20260504174752 21 263 4.8 14.5 0.00 0.00 0.00 40 1010.6
20260504174517 20 86 3.2 19.3 0.00 0.00 0.00 41 1010.6
20260504174229 21 131 8.0 19.3 0.00 0.00 0.00 41 1010.6
20260504174057 20 139 4.8 22.5 0.00 0.00 0.00 39 1010.6
20260504173748 21 163 8.0 22.5 0.00 0.00 0.00 39 1010.6
20260504173509 20 186 6.4 22.5 0.00 0.00 0.00 40 1010.6
20260504173226 21 130 4.8 17.7 0.00 0.00 0.00 39 1010.6
20260504173103 21 177 6.4 14.5 0.00 0.00 0.00 40 1010.7
20260504172725 21 126 4.8 11.3 0.00 0.00 0.00 42 1010.7
20260504172544 21 51 3.2 14.5 0.00 0.00 0.00 39 1010.7
20260504172238 21 360 3.2 19.3 0.00 0.00 0.00 38 1010.6
20260504172030 20 244 3.2 19.3 0.00 0.00 0.00 38 1010.7
20260504171724 20 303 4.8 19.3 0.00 0.00 0.00 41 1010.7
20260504171529 20 166 3.2 19.3 0.00 0.00 0.00 40 1010.7
20260504171231 20 44 6.4 19.3 0.00 0.00 0.00 38 1010.6
20260504171002 20 264 3.2 14.5 0.00 0.00 0.00 38 1010.6
20260504170737 20 270 3.2 20.9 0.00 0.00 0.00 38 1010.6
20260504170546 20 256 3.2 20.9 0.00 0.00 0.00 39 1010.6
20260504170257 20 153 9.7 27.4 0.00 0.00 0.00 38 1010.7
20260504160240 20 244 1.6 12.9 0.00 0.00 0.00 42 1011.3
20260504151103 19 98 3.2 6.4 0.00 0.00 0.00 42 1011.9
20260504150759 19 227 1.6 6.4 0.00 0.00 0.00 46 1011.8
20260504150529 18 245 1.6 9.7 0.00 0.00 0.00 42 1012.0
20260504150226 18 262 1.6 17.7 0.00 0.00 0.00 42 1011.8
20260504141227 17 315 3.2 8.0 0.00 0.00 0.00 44 1012.2
20260504141030 17 337 3.2 8.0 0.00 0.00 0.00 43 1012.4
20260504140726 17 355 3.2 8.0 0.00 0.00 0.00 45 1012.3
20260504140511 17 303 4.8 8.0 0.00 0.00 0.00 43 1012.2
20260504140241 17 163 3.2 6.4 0.00 0.00 0.00 43 1012.4
20260504130730 13 228 1.6 9.7 0.00 0.00 0.00 53 1012.9
20260504130520 13 294 1.6 9.7 0.00 0.00 0.00 51 1013.1
20260504130300 13 128 1.6 6.4 0.00 0.00 0.00 53 1012.9
20260504120237 11 27 3.2 6.4 0.00 0.00 0.00 59 1013.3
20260504110558 9 117 0.0 6.4 0.00 0.00 0.00 63 1013.3
20260504110235 9 24 1.6 6.4 0.00 0.00 0.00 64 1013.1
20260504100529 8 159 0.0 1.6 0.00 0.00 0.00 66 1012.9
20260504100225 8 149 0.0 3.2 0.00 0.00 0.00 67 1012.8
20260504081735 7 103 0.0 1.6 0.00 0.00 0.00 71 1012.1
20260504081504 6 103 0.0 3.2 0.00 0.00 0.00 72 1012.3
20260504081232 7 103 0.0 3.2 0.00 0.00 0.00 72 1012.1
20260504081053 6 103 0.0 3.2 0.00 0.00 0.00 73 1012.4
20260504080729 7 103 0.0 3.2 0.00 0.00 0.00 73 1012.2
20260504080541 6 103 0.0 3.2 0.00 0.00 0.00 74 1012.4
20260504080249 7 101 0.0 4.8 0.00 0.00 0.00 73 1012.2
20260504070228 5 144 0.0 0.0 0.00 0.00 0.00 83 1011.8
20260504060245 5 215 0.0 0.0 0.00 0.00 0.00 79 1012.0
20260504060134 5 215 0.0 0.0 0.00 0.00 0.00 78 1012.1
20260504050737 5 215 0.0 0.0 0.00 0.00 0.00 75 1011.8
20260504050551 5 215 0.0 0.0 0.00 0.00 0.00 75 1011.9
20260504050257 5 215 0.0 0.0 0.00 0.00 0.00 75 1011.7
20260504045724 5 215 0.0 0.0 0.00 0.00 0.00 74 1011.8
20260504045519 5 215 0.0 0.0 0.00 0.00 0.00 73 1012.0
20260504045234 5 215 0.0 0.0 0.00 0.00 0.00 74 1011.9
20260504045055 5 215 0.0 0.0 0.00 0.00 0.00 73 1012.0
20260504044751 6 215 0.0 0.0 0.00 0.00 0.00 72 1011.8
20260504044515 5 215 0.0 0.0 0.00 0.00 0.00 72 1012.1
20260504044227 6 215 0.0 0.0 0.00 0.00 0.00 71 1011.9
20260504044103 5 215 0.0 0.0 0.00 0.00 0.00 72 1012.0
20260504043739 6 215 0.0 0.0 0.00 0.00 0.00 70 1011.8
20260504043547 5 215 0.0 0.0 0.00 0.00 0.00 70 1012.1
20260504043226 6 215 0.0 0.0 0.00 0.00 0.00 71 1011.8
20260504043101 5 215 0.0 0.0 0.00 0.00 0.00 70 1012.1
20260504042739 6 215 0.0 0.0 0.00 0.00 0.00 71 1011.8
20260504042536 5 215 0.0 0.0 0.00 0.00 0.00 70 1012.1
20260504042254 6 215 0.0 0.0 0.00 0.00 0.00 70 1011.8
20260504042052 6 215 0.0 0.0 0.00 0.00 0.00 70 1012.1
20260504041731 6 215 0.0 0.0 0.00 0.00 0.00 70 1011.8
20260504041536 6 215 0.0 0.0 0.00 0.00 0.00 69 1012.1
20260504041243 6 215 0.0 0.0 0.00 0.00 0.00 69 1011.8
20260504041007 6 215 0.0 0.0 0.00 0.00 0.00 69 1012.0
20260504040740 6 215 0.0 0.0 0.00 0.00 0.00 70 1011.9
20260504040559 6 215 0.0 0.0 0.00 0.00 0.00 70 1012.0
20260504040237 6 215 0.0 0.0 0.00 0.00 0.00 69 1011.8
20260504040045 6 215 0.0 0.0 0.00 0.00 0.00 69 1011.9
20260504035725 6 215 0.0 0.0 0.00 0.00 0.00 70 1011.7
20260504035512 6 215 0.0 0.0 0.00 0.00 0.00 69 1011.9
20260504035241 6 215 0.0 0.0 0.00 0.00 0.00 69 1011.7
20260504035051 6 215 0.0 0.0 0.00 0.00 0.00 70 1011.9
20260504034731 6 215 0.0 0.0 0.00 0.00 0.00 70 1011.7
20260504034541 6 215 0.0 0.0 0.00 0.00 0.00 71 1011.7
20260504034223 6 215 0.0 0.0 0.00 0.00 0.00 69 1011.6
20260504034029 6 215 0.0 0.0 0.00 0.00 0.00 69 1011.8
20260504033741 6 215 0.0 0.0 0.00 0.00 0.00 70 1011.6
20260504033600 6 215 0.0 0.0 0.00 0.00 0.00 69 1011.8
20260504033232 6 215 0.0 0.0 0.00 0.00 0.00 71 1011.5
20260504033054 6 215 0.0 0.0 0.00 0.00 0.00 70 1011.8
20260504032730 6 215 0.0 0.0 0.00 0.00 0.00 69 1011.6
20260504032532 6 215 0.0 0.0 0.00 0.00 0.00 72 1011.7
20260504032247 6 215 0.0 0.0 0.00 0.00 0.00 70 1011.7
20260504032054 6 215 0.0 0.0 0.00 0.00 0.00 69 1011.8
20260504031741 6 215 0.0 0.0 0.00 0.00 0.00 69 1011.6
20260504031540 6 215 0.0 0.0 0.00 0.00 0.00 71 1011.8
20260504031248 6 215 0.0 0.0 0.00 0.00 0.00 68 1011.6
20260504031022 6 215 0.0 0.0 0.00 0.00 0.00 68 1011.8
20260504030723 6 215 0.0 0.0 0.00 0.00 0.00 70 1011.6
20260504030530 6 215 0.0 0.0 0.00 0.00 0.00 70 1011.9
20260504030242 6 215 0.0 0.0 0.00 0.00 0.00 70 1011.6
20260504030015 6 215 0.0 0.0 0.00 0.00 0.00 71 1011.8
20260504025730 6 215 0.0 0.0 0.00 0.00 0.00 71 1011.6
20260504025551 6 215 0.0 0.0 0.00 0.00 0.00 71 1011.7
20260504025253 6 215 0.0 0.0 0.00 0.00 0.00 69 1011.5
20260504025028 6 215 0.0 0.0 0.00 0.00 0.00 69 1011.7
20260504024734 6 215 0.0 0.0 0.00 0.00 0.00 68 1011.5
20260504024606 6 215 0.0 0.0 0.00 0.00 0.00 70 1011.8
20260504024231 6 215 0.0 0.0 0.00 0.00 0.00 69 1011.6
20260504024053 6 215 0.0 0.0 0.00 0.00 0.00 68 1011.7
20260504023731 6 215 0.0 0.0 0.00 0.00 0.00 68 1011.6
20260504023536 6 215 0.0 0.0 0.00 0.00 0.00 67 1011.8
20260504023229 6 215 0.0 0.0 0.00 0.00 0.00 68 1011.6
20260504023012 6 215 0.0 0.0 0.00 0.00 0.00 68 1011.7
20260504022745 6 215 0.0 0.0 0.00 0.00 0.00 67 1011.5
20260504022537 6 215 0.0 0.0 0.00 0.00 0.00 67 1011.7
20260504022239 6 215 0.0 0.0 0.00 0.00 0.00 67 1011.6
20260504022006 6 215 0.0 0.0 0.00 0.00 0.00 68 1011.7
20260504021754 6 215 0.0 0.0 0.00 0.00 0.00 69 1011.5
20260504021540 6 215 0.0 0.0 0.00 0.00 0.00 69 1011.7
20260504021231 6 215 0.0 0.0 0.00 0.00 0.00 68 1011.5
20260504021032 6 215 0.0 0.0 0.00 0.00 0.00 69 1011.7
20260504020747 6 215 0.0 0.0 0.00 0.00 0.00 68 1011.5
20260504020548 6 215 0.0 0.0 0.00 0.00 0.00 68 1011.5
20260504020222 6 215 0.0 0.0 0.00 0.00 0.00 68 1011.4
20260504020029 6 215 0.0 0.0 0.00 0.00 0.00 68 1011.6
20260504015738 6 215 0.0 0.0 0.00 0.00 0.00 67 1011.3
20260504015524 6 215 0.0 0.0 0.00 0.00 0.00 67 1011.5
20260504015234 7 215 0.0 0.0 0.00 0.00 0.00 67 1011.3
20260504015104 6 215 0.0 0.0 0.00 0.00 0.00 67 1011.4
20260504014753 7 215 0.0 0.0 0.00 0.00 0.00 67 1011.3
20260504014545 6 215 0.0 0.0 0.00 0.00 0.00 67 1011.5
20260504014229 7 215 0.0 0.0 0.00 0.00 0.00 67 1011.4
20260504014009 7 215 0.0 0.0 0.00 0.00 0.00 67 1011.5
20260504013727 7 215 0.0 0.0 0.00 0.00 0.00 66 1011.3
20260504013559 7 215 0.0 0.0 0.00 0.00 0.00 68 1011.5
20260504013225 7 215 0.0 0.0 0.00 0.00 0.00 66 1011.3
20260504013047 7 215 0.0 0.0 0.00 0.00 0.00 67 1011.4
20260504012738 7 215 0.0 0.0 0.00 0.00 0.00 66 1011.2
20260504012533 7 215 0.0 0.0 0.00 0.00 0.00 66 1011.3
20260504012235 7 215 0.0 0.0 0.00 0.00 0.00 64 1011.2
20260504012112 7 215 0.0 0.0 0.00 0.00 0.00 65 1011.4
20260504011751 7 215 0.0 0.0 0.00 0.00 0.00 66 1011.2
20260504011533 7 215 0.0 0.0 0.00 0.00 0.00 66 1011.3
20260504011228 7 215 0.0 3.2 0.00 0.00 0.00 66 1011.0
20260504011010 7 215 0.0 3.2 0.00 0.00 0.00 67 1011.2
20260504010724 7 215 0.0 3.2 0.00 0.00 0.00 65 1011.0
20260504010557 7 215 0.0 3.2 0.00 0.00 0.00 65 1011.1
20260504010235 7 321 0.0 3.2 0.00 0.00 0.00 64 1010.9
20260504010051 7 321 0.0 3.2 0.00 0.00 0.00 64 1010.9
20260504005734 7 321 0.0 3.2 0.00 0.00 0.00 64 1010.8
20260504005528 7 321 1.6 3.2 0.00 0.00 0.00 64 1010.9
20260504005229 8 321 1.6 3.2 0.00 0.00 0.00 63 1010.7
20260504005004 7 321 0.0 0.0 0.00 0.00 0.00 62 1010.8
20260504004727 8 321 0.0 0.0 0.00 0.00 0.00 61 1010.7
20260504004552 7 321 0.0 0.0 0.00 0.00 0.00 60 1010.8
20260504004223 8 321 0.0 0.0 0.00 0.00 0.00 61 1010.6
20260504004038 8 321 0.0 0.0 0.00 0.00 0.00 60 1010.7
20260504003728 8 321 0.0 0.0 0.00 0.00 0.00 61 1010.4
20260504003539 8 321 0.0 0.0 0.00 0.00 0.00 61 1010.5
20260504003232 8 321 0.0 0.0 0.00 0.00 0.00 59 1010.3
20260504003026 8 321 0.0 0.0 0.00 0.00 0.00 60 1010.4
20260504002731 8 321 0.0 0.0 0.00 0.00 0.00 57 1010.3
20260504002601 8 321 0.0 0.0 0.00 0.00 0.00 59 1010.5
20260504002228 8 321 0.0 0.0 0.00 0.00 0.00 57 1010.3
20260504002046 8 321 0.0 0.0 0.00 0.00 0.00 57 1010.4
20260504001726 9 321 0.0 0.0 0.00 0.00 0.00 59 1010.2
20260504001530 8 321 0.0 0.0 0.00 0.00 0.00 58 1010.3
20260504001223 9 321 0.0 0.0 0.00 0.00 0.00 57 1010.2
20260504001002 9 321 0.0 0.0 0.00 0.00 0.00 56 1010.3
20260504000814 10 321 0.0 0.0 0.00 0.00 0.00 57 1010.1
20260504000529 10 321 0.0 0.0 0.00 0.00 0.00 57 1010.2
20260504000236 10 321 0.0 0.0 0.00 0.00 0.00 53 1010.0
20260504000006 10 321 0.0 0.0 0.00 0.00 0.00 59 1010.1
20260503235733 10 321 0.0 0.0 0.00 0.00 0.00 55 1009.9
20260503235554 10 321 0.0 0.0 0.00 0.00 0.00 53 1010.1
20260503235238 11 321 0.0 0.0 0.00 0.00 0.00 57 1009.9
20260503235032 11 321 0.0 0.0 0.00 0.00 0.00 51 1010.1
20260503234728 11 321 0.0 0.0 0.00 0.00 0.00 47 1009.9
20260503234538 11 321 0.0 0.0 0.00 0.00 0.00 50 1010.1
20260503234227 11 321 0.0 0.0 0.00 0.00 0.00 45 1009.9
20260503234041 11 321 0.0 0.0 0.00 0.00 0.00 46 1010.0
20260503233741 11 321 0.0 0.0 0.00 0.00 0.00 45 1009.8
20260503233541 11 321 0.0 0.0 0.00 0.00 0.00 44 1009.9
20260503233231 12 321 0.0 4.8 0.00 0.00 0.00 43 1009.8
20260503233028 11 321 0.0 4.8 0.00 0.00 0.00 43 1009.9
20260503232738 12 327 0.0 4.8 0.00 0.00 0.00 43 1009.8
20260503232559 11 327 0.0 4.8 0.00 0.00 0.00 43 1009.9
20260503232227 12 326 1.6 4.8 0.00 0.00 0.00 42 1009.8
20260503232102 12 327 1.6 4.8 0.00 0.00 0.00 41 1009.8
20260503231725 12 321 1.6 6.4 0.00 0.00 0.00 41 1009.8
20260503231603 12 323 0.0 8.0 0.00 0.00 0.00 42 1009.9
20260503231232 12 321 1.6 8.0 0.00 0.00 0.00 42 1009.6
20260503231048 12 327 1.6 8.0 0.00 0.00 0.00 41 1009.8
20260503230733 12 315 4.8 9.7 0.00 0.00 0.00 38 1009.6
20260503230555 12 317 1.6 9.7 0.00 0.00 0.00 42 1009.8
20260503230300 12 309 1.6 9.7 0.00 0.00 0.00 40 1009.6
20260503230006 12 323 3.2 8.0 0.00 0.00 0.00 41 1009.8
20260503225727 12 312 1.6 11.3 0.00 0.00 0.00 41 1009.5
20260503225506 12 325 3.2 11.3 0.00 0.00 0.00 40 1009.6
20260503225223 12 327 3.2 11.3 0.00 0.00 0.00 40 1009.6
20260503225016 12 301 4.8 12.9 0.00 0.00 0.00 39 1009.6
20260503224722 12 288 4.8 12.9 0.00 0.00 0.00 40 1009.4
20260503224517 12 335 6.4 12.9 0.00 0.00 0.00 40 1009.6
20260503224234 12 328 6.4 12.9 0.00 0.00 0.00 39 1009.4
20260503224055 12 323 1.6 8.0 0.00 0.00 0.00 41 1009.5
20260503223728 12 336 3.2 9.7 0.00 0.00 0.00 43 1009.5
20260503223543 12 346 1.6 9.7 0.00 0.00 0.00 41 1009.5
20260503223224 12 301 3.2 16.1 0.00 0.00 0.00 40 1009.4
20260503223026 12 308 3.2 16.1 0.00 0.00 0.00 40 1009.4
20260503222741 12 308 4.8 16.1 0.00 0.00 0.00 38 1009.4
20260503222605 12 322 6.4 16.1 0.00 0.00 0.00 39 1009.4
20260503222246 12 321 4.8 16.1 0.00 0.00 0.00 40 1009.4
20260503222045 12 311 3.2 16.1 0.00 0.00 0.00 40 1009.5
20260503221804 12 336 4.8 16.1 0.00 0.00 0.00 43 1009.3
20260503221607 12 299 3.2 9.7 0.00 0.00 0.00 40 1009.4
20260503221258 12 338 3.2 9.7 0.00 0.00 0.00 40 1009.3
20260503221033 12 306 3.2 9.7 0.00 0.00 0.00 39 1009.4
20260503220733 12 336 4.8 11.3 0.00 0.00 0.00 40 1009.4
20260503220609 12 327 4.8 9.7 0.00 0.00 0.00 40 1009.5
20260503220258 12 338 4.8 9.7 0.00 0.00 0.00 41 1009.2
20260503220027 12 311 4.8 9.7 0.00 0.00 0.00 41 1009.5
20260503215738 12 329 3.2 12.9 0.00 0.00 0.00 41 1009.4
20260503215610 12 342 4.8 12.9 0.00 0.00 0.00 41 1009.5
20260503215301 12 319 4.8 12.9 0.00 0.00 0.00 40 1009.3
20260503215048 12 42 4.8 12.9 0.00 0.00 0.00 40 1009.4
20260503214732 12 336 6.4 16.1 0.00 0.00 0.00 40 1009.3
20260503214533 12 286 4.8 16.1 0.00 0.00 0.00 41 1009.4
20260503214228 12 322 6.4 16.1 0.00 0.00 0.00 39 1009.3
20260503214007 12 337 3.2 8.0 0.00 0.00 0.00 43 1009.4
20260503213727 12 325 1.6 12.9 0.00 0.00 0.00 42 1009.3
20260503213559 12 296 4.8 12.9 0.00 0.00 0.00 41 1009.4
20260503213224 12 318 4.8 12.9 0.00 0.00 0.00 41 1009.2
20260503213041 12 312 6.4 12.9 0.00 0.00 0.00 40 1009.4
20260503212750 12 290 3.2 12.9 0.00 0.00 0.00 42 1009.4
20260503212521 12 338 3.2 12.9 0.00 0.00 0.00 40 1009.5
20260503212234 12 315 4.8 14.5 0.00 0.00 0.00 41 1009.4
20260503212056 12 313 4.8 14.5 0.00 0.00 0.00 41 1009.5
20260503211731 12 300 8.0 14.5 0.00 0.00 0.00 39 1009.4
20260503211543 12 298 4.8 12.9 0.00 0.00 0.00 42 1009.4
20260503211230 12 317 4.8 11.3 0.00 0.00 0.00 40 1009.2
20260503211015 12 43 3.2 17.7 0.00 0.00 0.00 41 1009.4
20260503210726 12 335 6.4 17.7 0.00 0.00 0.00 39 1009.2
20260503210503 12 355 6.4 17.7 0.00 0.00 0.00 40 1009.3
20260503210243 12 329 9.7 17.7 0.00 0.00 0.00 40 1009.1
20260503210054 12 323 6.4 17.7 0.00 0.00 0.00 41 1009.3
20260503205732 12 327 8.0 17.7 0.00 0.00 0.00 40 1009.1
20260503205534 12 342 4.8 17.7 0.00 0.00 0.00 41 1009.1
20260503205223 12 328 8.0 17.7 0.00 0.00 0.00 42 1009.0
20260503205135 12 318 4.8 14.5 0.00 0.00 0.00 42 1009.1
20260503204750 12 331 6.4 14.5 0.00 0.00 0.00 43 1009.2
20260503204558 12 300 8.0 16.1 0.00 0.00 0.00 41 1009.2
20260503204236 12 312 6.4 16.1 0.00 0.00 0.00 41 1009.0
20260503204020 12 332 8.0 16.1 0.00 0.00 0.00 41 1009.0
20260503203740 12 292 6.4 14.5 0.00 0.00 0.00 41 1008.9
20260503203601 12 348 6.4 14.5 0.00 0.00 0.00 41 1009.1
20260503203241 12 302 6.4 12.9 0.00 0.00 0.00 41 1009.0
20260503203051 12 328 4.8 12.9 0.00 0.00 0.00 42 1009.0
20260503202753 12 345 8.0 12.9 0.00 0.00 0.00 41 1009.0
20260503202604 11 328 4.8 14.5 0.00 0.00 0.00 43 1009.1
20260503202229 12 286 6.4 17.7 0.00 0.00 0.00 43 1009.0
20260503202052 11 321 4.8 17.7 0.00 0.00 0.00 44 1009.1
20260503201727 12 333 6.4 19.3 0.00 0.00 0.00 42 1008.9
20260503201537 11 316 6.4 19.3 0.00 0.00 0.00 40 1009.1
20260503201224 12 333 8.0 19.3 0.00 0.00 0.00 41 1008.9
20260503201010 11 340 8.0 19.3 0.00 0.00 0.00 42 1009.0
20260503200742 12 329 4.8 14.5 0.00 0.00 0.00 41 1008.9
20260503200555 12 313 8.0 14.5 0.00 0.00 0.00 40 1009.0
20260503200238 12 313 6.4 16.1 0.00 0.00 0.00 40 1008.9
20260503200049 12 332 6.4 16.1 0.00 0.00 0.00 40 1009.1
20260503195729 12 321 6.4 16.1 0.00 0.00 0.00 40 1008.9
20260503195533 12 360 6.4 16.1 0.00 0.00 0.00 40 1009.0
20260503195227 12 327 6.4 14.5 0.00 0.00 0.00 42 1008.8